カタログに戻る

FENGYUN 1C DEB

運用中SSO
NORAD 30494·DEBRIS·🇨🇳 China

打ち上げ May 10, 1999 から Taiyuan Satellite Launch Center

Loading…

次のパス (今後24時間)

TLE

最新Source: Space-Track

元期: Sep 14, 2026, 01:34 UTC

1 30494U 99025AHG 26257.06578542  .00000857  00000-0  76071-3 0  9998
2 30494  99.2605 291.8765 0185902 212.1907 146.7787 13.80081576982837

AllMySatでFENGYUN 1C DEBをリアルタイム追跡

Download on the App Store